Weather History for McAllen, TX

Change the Weather History Date:

Sunday, February 10, 2013

  Actual Average Record
Temperature  
Mean Temperature 82 °F 64 °F  
Max Temperature 96 °F 74 °F 96 °F (2013)
Min Temperature 68 °F 53 °F 29 °F (1910)
Degree Days  
Heating Degree Days 0 4  
Month to date heating degree days 0 49  
Since 1 July heating degree days 269 476  
Cooling Degree Days 17 3  
Month to date cooling degree days 83 28  
Year to date cooling degree days 171 90  
Growing Degree Days 31 (Base 50)    
Moisture  
Dew Point 65 °F    
Average Humidity 58    
Maximum Humidity 84    
Minimum Humidity 32    
Precipitation  
Precipitation 0.00 in 0.03 in 0.98 in (1958)
Month to date precipitation 0.01 0.42  
Year to date precipitation 0.99 1.47  
Sea Level Pressure  
Sea Level Pressure 29.79 in    
Wind  
Wind Speed 11 mph (SE)    
Max Wind Speed 24 mph    
Max Gust Speed 30 mph    
Visibility 9 miles    
Events      
T = Trace of Precipitation, MM = Missing Value Source: NWS Daily Summary

Daily Weather History Graph

Daily Weather History Graph

Search for Another Location

Airport:

Trip Planner

Search our weather history database for the weather conditions in past years. The results will help you decide how hot, cold, wet, or windy it might be!

Date:

Astronomy

Feb. 10, 2013 Rise Set
Actual Time 7:11 AM CST 6:22 PM CST
Civil Twilight 6:48 AM CST 6:46 PM CST
Nautical Twilight 6:20 AM CST 7:13 PM CST
Astronomical Twilight 5:53 AM CST 7:40 PM CST
Moon 7:10 AM CST (2/10) 7:04 PM CST (2/10)
Length of Visible Light 11h 58m
Length of Day
11h 10m
New Moon, 0% of the Moon is Illuminated
Feb 10
New Moon
Feb 17
First Quarter
Feb 25
Full
Mar 4
Last Quarter
Mar 11
New

Hourly Weather History & Observations

Time (CST) Temp. Heat Index Dew Point Humidity Pressure Visibility Wind Dir Wind Speed Gust Speed Precip Events Conditions
12:53 AM 73.9 °F - 66.9 °F 79% 29.79 in 10.0 mi South 15.0 mph 28.8 mph N/A   Mostly Cloudy
1:53 AM 73.9 °F - 66.9 °F 79% 29.78 in 9.0 mi SSE 15.0 mph 21.9 mph N/A   Mostly Cloudy
2:53 AM 73.9 °F - 66.9 °F 79% 29.77 in 9.0 mi SSE 16.1 mph 25.3 mph N/A   Overcast
3:41 AM 73.4 °F - 66.2 °F 78% 29.77 in 9.0 mi South 13.8 mph 21.9 mph N/A   Scattered Clouds
3:53 AM 73.0 °F - 66.0 °F 79% 29.76 in 9.0 mi South 13.8 mph 21.9 mph N/A   Partly Cloudy
4:53 AM 72.0 °F - 66.0 °F 81% 29.75 in 9.0 mi SSE 15.0 mph - N/A   Clear
5:53 AM 71.1 °F - 64.9 °F 81% 29.76 in 9.0 mi SSE 12.7 mph - N/A   Clear
6:53 AM 72.0 °F - 64.9 °F 78% 29.79 in 9.0 mi South 10.4 mph - N/A   Clear
7:53 AM 73.0 °F - 64.9 °F 76% 29.81 in 9.0 mi South 12.7 mph - N/A   Clear
8:53 AM 73.9 °F - 66.0 °F 76% 29.83 in 8.0 mi South 11.5 mph 18.4 mph N/A   Clear
9:53 AM 79.0 °F - 66.0 °F 64% 29.84 in 8.0 mi South 16.1 mph 21.9 mph N/A   Clear
10:53 AM 82.9 °F 85.0 °F 66.0 °F 56% 29.83 in 9.0 mi South 17.3 mph 21.9 mph N/A   Clear
11:53 AM 88.0 °F 89.6 °F 64.9 °F 46% 29.81 in 10.0 mi South 9.2 mph - N/A   Clear
12:53 PM 91.0 °F 92.6 °F 64.0 °F 41% 29.78 in 10.0 mi SSE 8.1 mph - N/A   Clear
1:53 PM 91.9 °F 92.5 °F 62.1 °F 37% 29.75 in 10.0 mi East 4.6 mph - N/A   Clear
2:53 PM 93.0 °F 92.7 °F 60.1 °F 33% 29.72 in 10.0 mi Calm Calm - N/A   Clear
3:53 PM 93.9 °F 93.2 °F 59.0 °F 31% 29.70 in 10.0 mi East 9.2 mph - N/A   Clear
4:53 PM 90.0 °F 93.6 °F 68.0 °F 48% 29.70 in 10.0 mi ESE 11.5 mph - N/A   Clear
5:53 PM 84.9 °F 88.2 °F 68.0 °F 57% 29.72 in 10.0 mi ESE 13.8 mph 23.0 mph N/A   Clear
6:53 PM 80.1 °F 82.7 °F 68.0 °F 67% 29.75 in 10.0 mi ESE 16.1 mph - N/A   Clear
7:53 PM 78.1 °F - 68.0 °F 71% 29.79 in 9.0 mi ESE 10.4 mph - N/A   Clear
8:53 PM 75.9 °F - 69.1 °F 79% 29.83 in 8.0 mi ESE 6.9 mph - N/A   Mostly Cloudy
9:53 PM 75.9 °F - 69.1 °F 79% 29.85 in 8.0 mi East 4.6 mph - N/A   Overcast
10:53 PM 72.0 °F - 63.0 °F 73% 29.87 in 10.0 mi North 11.5 mph - N/A   Overcast
11:04 PM 71.6 °F - 62.6 °F 73% 29.88 in 10.0 mi North 11.5 mph - N/A   Overcast
11:42 PM 69.8 °F - 62.6 °F 78% 29.89 in 9.0 mi North 12.7 mph - N/A   Overcast
11:53 PM 69.1 °F - 62.1 °F 78% 29.89 in 8.0 mi NNE 11.5 mph - N/A   Overcast